Location: Ballingbuur
(53.0000°N, 5.7667°E)
Time: 20:40:04
(UTC+00:00)

Cosmos 2218 Rocket - Pass Details

Date: 29 November 2020
Orbit: 956 x 1005 km, 82.9° (Epoch: 24 January)

Event Time Altitude Azimuth Distance (km) Brightness Sun altitude
Rises 06:27:57 0° 186° (S) 3,681 7.3 -8.2°
Reaches altitude 10° 06:30:28 10° 186° (S) 2,730 6.6 -7.8°
Maximum altitude 06:36:44 85° 100° (E) 984 4.1 -7.0°
Drops below altitude 10° 06:42:58 10° 11° (NNE) 2,716 6.2 -6.2°
Sets 06:45:28 0° 12° (NNE) 3,662 6.8 -5.8°
